Location: Tr�vern
(48.0333°N, 4.6000°W)
Time: 18:15:24
(UTC+00:00)

Cosmos 1733 Rocket - Pass Details

Date: 14 July 2020
Orbit: 604 x 627 km, 82.5° (Epoch: 12 August)

Event Time Altitude Azimuth Distance (km) Brightness Sun altitude
Exits shadow 03:06:40 16° 203° (SSW) 1,611 4.6 -11.4°
Maximum altitude 03:10:03 61° 281° (WNW) 692 3.2 -11.1°
Drops below altitude 10° 03:14:22 10° 3° (N) 1,965 6.5 -10.6°
Sets 03:16:37 0° 7° (N) 2,875 7.5 -10.4°
